Tracking 19644 objects as of 25-Apr-2019
HD Live streaming from Space Station
objects crossing your sky now

SESAT 2 (EXPRESS AM-22)

Track SESAT 2 (EXPRESS AM-22) now!
SESAT 2 (EXPRESS AM-22) is classified as:


NORAD ID: 28134
Int'l Code: 2003-060A
Perigee: 36,032.4 km
Apogee: 36,073.8 km
Inclination: 1.9 °
Period: 1,449.4 minutes
Semi major axis: 42424 km
RCS: 7.9432 m2 (large)
Launch date: December 28, 2003
Source: European Telecommunications Satellite Organization (EUTE)
Launch site: TYURATAM MISSILE AND SPACE COMPLEX (TTMTR)

12 of the 24 transponders are referred to as SESAT-2 (EUTELSAT); 26 C-band, 4 Ku-band.
aabbcc
Your satellite tracking list
Your tracking list is empty




NASA's NSSDC Master Catalog

Two Line Element Set (TLE):
1 28134U 03060A   19114.36964993 +.00000079 +00000-0 +00000-0 0  9998
2 28134 001.9222 088.0803 0004872 049.6083 081.2649 00.99353707056097
Source of the keplerian elements: AFSPC